GW7682 Weather Reports


Display with metric or nautical units.
time (UTC)temp
F
wind
direction
speed
MPH
gust
MPH
rain 1hr
in
rain 24hr
in
rain mn
in
humidity
%
barometer
mb
20260906220924 93 199 2.0 4.0 0.00 0.00 0.00 29 1015.6
20260906220424 93 120 1.0 3.0 0.00 0.00 0.00 30 1015.7
20260906215924 93 130 2.0 4.0 0.00 0.00 0.00 29 1015.7
20260906215424 94 67 3.0 7.0 0.00 0.00 0.00 29 1015.7
20260906214924 94 164 2.0 2.0 0.00 0.00 0.00 30 1015.7
20260906214424 94 69 2.0 3.0 0.00 0.00 0.00 28 1015.8
20260906213925 94 213 3.0 6.0 0.00 0.00 0.00 28 1015.8
20260906213424 94 90 3.0 6.0 0.00 0.00 0.00 28 1016.0
20260906212924 94 45 2.0 4.0 0.00 0.00 0.00 29 1016.1
20260906212424 94 24 2.0 4.0 0.00 0.00 0.00 29 1016.1
20260906211925 95 42 2.0 4.0 0.00 0.00 0.00 28 1016.2
20260906211424 94 41 1.0 2.0 0.00 0.00 0.00 27 1016.2
20260906210924 93 51 3.0 6.0 0.00 0.00 0.00 29 1016.4
20260906210424 93 27 3.0 6.0 0.00 0.00 0.00 29 1016.4
20260906205924 93 337 2.0 4.0 0.00 0.00 0.00 30 1016.5
20260906205424 92 1 2.0 3.0 0.00 0.00 0.00 30 1016.5
20260906204924 92 25 2.0 5.0 0.00 0.00 0.00 31 1016.7
20260906204424 92 23 4.0 5.0 0.00 0.00 0.00 30 1016.8
20260906203924 92 13 3.0 5.0 0.00 0.00 0.00 31 1016.9
20260906203424 91 185 2.0 2.0 0.00 0.00 0.00 30 1016.9
20260906202925 91 183 2.0 4.0 0.00 0.00 0.00 30 1016.9
20260906202424 91 24 3.0 4.0 0.00 0.00 0.00 31 1017.0
20260906201924 91 302 2.0 3.0 0.00 0.00 0.00 30 1017.0
20260906201424 91 93 2.0 5.0 0.00 0.00 0.00 31 1017.0
20260906200925 91 24 2.0 4.0 0.00 0.00 0.00 31 1017.1
20260906200424 91 17 3.0 5.0 0.00 0.00 0.00 31 1017.1
20260906195924 91 38 3.0 6.0 0.00 0.00 0.00 31 1017.3
20260906195424 90 151 2.0 4.0 0.00 0.00 0.00 30 1017.4
20260906194925 90 67 2.0 4.0 0.00 0.00 0.00 29 1017.5
20260906194424 89 24 3.0 5.0 0.00 0.00 0.00 33 1017.5
20260906193924 89 353 2.0 4.0 0.00 0.00 0.00 34 1017.6
20260906193424 89 311 3.0 4.0 0.00 0.00 0.00 32 1017.7
20260906192924 89 16 2.0 4.0 0.00 0.00 0.00 33 1017.7
20260906192424 89 11 3.0 4.0 0.00 0.00 0.00 33 1017.8
20260906191924 88 174 3.0 4.0 0.00 0.00 0.00 32 1017.8
20260906191441 88 74 2.0 4.0 0.00 0.00 0.00 33 1018.0
20260906190924 88 76 2.0 3.0 0.00 0.00 0.00 33 1018.0
20260906190424 87 33 4.0 6.0 0.00 0.00 0.00 35 1018.1
20260906185925 87 66 3.0 4.0 0.00 0.00 0.00 35 1018.2
20260906185424 87 329 3.0 7.0 0.00 0.00 0.00 35 1018.3
20260906184924 87 30 6.0 9.0 0.00 0.00 0.00 35 1018.4
20260906184424 87 20 2.0 4.0 0.00 0.00 0.00 35 1018.5
20260906183924 87 29 2.0 3.0 0.00 0.00 0.00 35 1018.7
20260906183424 86 134 2.0 3.0 0.00 0.00 0.00 35 1018.7
20260906182924 85 21 4.0 5.0 0.00 0.00 0.00 37 1018.8
20260906182424 85 360 4.0 6.0 0.00 0.00 0.00 37 1018.8
20260906181924 85 24 3.0 5.0 0.00 0.00 0.00 37 1019.0
20260906181425 85 47 2.0 4.0 0.00 0.00 0.00 37 1019.1
20260906180924 84 48 2.0 3.0 0.00 0.00 0.00 38 1019.1
20260906180424 83 247 2.0 5.0 0.00 0.00 0.00 39 1019.3
20260906175924 84 16 4.0 6.0 0.00 0.00 0.00 39 1019.4
20260906175424 83 31 1.0 2.0 0.00 0.00 0.00 40 1019.4
20260906174925 83 178 2.0 4.0 0.00 0.00 0.00 40 1019.5
20260906174424 83 59 2.0 3.0 0.00 0.00 0.00 41 1019.6
20260906173924 83 341 2.0 3.0 0.00 0.00 0.00 42 1019.7
20260906173424 83 71 2.0 3.0 0.00 0.00 0.00 41 1019.8
20260906172924 82 327 2.0 3.0 0.00 0.00 0.00 43 1019.8
20260906172424 82 99 3.0 5.0 0.00 0.00 0.00 42 1020.0
20260906171924 81 148 2.0 3.0 0.00 0.00 0.00 44 1020.1
20260906171426 81 134 1.0 2.0 0.00 0.00 0.00 43 1020.2
20260906170924 81 14 4.0 5.0 0.00 0.00 0.00 43 1020.3
20260906170425 80 303 2.0 2.0 0.00 0.00 0.00 42 1020.3
20260906165924 80 146 2.0 4.0 0.00 0.00 0.00 43 1020.3
20260906165425 79 39 1.0 3.0 0.00 0.00 0.00 44 1020.4
20260906164925 80 298 2.0 4.0 0.00 0.00 0.00 44 1020.5
20260906164424 80 43 2.0 4.0 0.00 0.00 0.00 44 1020.5
20260906163924 80 152 1.0 1.0 0.00 0.00 0.00 44 1020.5
20260906163424 80 59 2.0 4.0 0.00 0.00 0.00 44 1020.5
20260906162924 79 311 1.0 2.0 0.00 0.00 0.00 44 1020.5
20260906162424 79 198 1.0 2.0 0.00 0.00 0.00 45 1020.7
20260906161925 78 337 2.0 3.0 0.00 0.00 0.00 46 1020.5
20260906161427 78 176 2.0 3.0 0.00 0.00 0.00 46 1020.5
20260906160926 78 186 2.0 3.0 0.00 0.00 0.00 47 1020.5
20260906160427 78 183 2.0 3.0 0.00 0.00 0.00 46 1020.5
20260906155924 77 64 2.0 3.0 0.00 0.00 0.00 49 1020.5
20260906155424 77 360 2.0 2.0 0.00 0.00 0.00 49 1020.5
20260906154925 77 112 2.0 4.0 0.00 0.00 0.00 48 1020.7
20260906154424 76 25 1.0 2.0 0.00 0.00 0.00 50 1020.7
20260906153924 76 113 2.0 3.0 0.00 0.00 0.00 48 1020.5
20260906153424 75 25 1.0 2.0 0.00 0.00 0.00 51 1020.5
20260906152924 75 19 2.0 4.0 0.00 0.00 0.00 52 1020.7
20260906152424 74 3 2.0 3.0 0.00 0.00 0.00 52 1020.7
20260906151924 74 38 1.0 2.0 0.00 0.00 0.00 53 1020.7
20260906151424 74 350 1.0 2.0 0.00 0.00 0.00 53 1020.7
20260906150924 74 38 2.0 3.0 0.00 0.00 0.00 52 1020.8
20260906150424 73 45 1.0 3.0 0.00 0.00 0.00 54 1020.8
20260906145924 73 351 1.0 2.0 0.00 0.00 0.00 54 1020.8
20260906145424 72 168 1.0 2.0 0.00 0.00 0.00 54 1020.8
20260906144924 71 13 1.0 2.0 0.00 0.00 0.00 56 1020.8
20260906144424 71 346 1.0 1.0 0.00 0.00 0.00 56 1020.8
20260906143924 70 8 1.0 2.0 0.00 0.00 0.00 57 1020.9
20260906143424 69 120 1.0 2.0 0.00 0.00 0.00 59 1020.9
20260906142924 68 182 2.0 2.0 0.00 0.00 0.00 61 1020.9
20260906142424 67 190 2.0 3.0 0.00 0.00 0.00 63 1020.9
20260906141924 66 198 3.0 3.0 0.00 0.00 0.00 63 1020.9
20260906141424 66 121 1.0 1.0 0.00 0.00 0.00 64 1020.9
20260906140925 65 238 1.0 1.0 0.00 0.00 0.00 66 1020.9
20260906140424 65 131 1.0 2.0 0.00 0.00 0.00 67 1020.9
20260906135924 64 112 1.0 2.0 0.00 0.00 0.00 69 1020.9
20260906135424 64 337 1.0 1.0 0.00 0.00 0.00 72 1020.9
20260906134924 62 267 1.0 1.0 0.00 0.00 0.00 74 1021.0
20260906134424 61 200 2.0 3.0 0.00 0.00 0.00 76 1021.0
20260906133924 60 261 0.0 1.0 0.00 0.00 0.00 81 1021.0
20260906133425 60 264 0.0 1.0 0.00 0.00 0.00 82 1021.0
20260906132924 60 218 1.0 1.0 0.00 0.00 0.00 82 1020.9
20260906132425 59 161 1.0 2.0 0.00 0.00 0.00 82 1020.9
20260906131924 59 201 1.0 2.0 0.00 0.00 0.00 83 1020.8
20260906131425 58 197 1.0 2.0 0.00 0.00 0.00 83 1020.7
20260906130924 58 205 2.0 2.0 0.00 0.00 0.00 85 1020.7
20260906130425 58 266 1.0 1.0 0.00 0.00 0.00 84 1020.5
20260906125924 58 216 1.0 2.0 0.00 0.00 0.00 84 1020.5
20260906125424 58 250 1.0 1.0 0.00 0.00 0.00 83 1020.4
20260906124924 59 220 1.0 2.0 0.00 0.00 0.00 83 1020.4
20260906124424 59 210 2.0 2.0 0.00 0.00 0.00 83 1020.3
20260906123926 59 210 2.0 2.0 0.00 0.00 0.00 83 1020.3
20260906123426 59 250 1.0 2.0 0.00 0.00 0.00 83 1020.3
20260906122924 59 217 1.0 1.0 0.00 0.00 0.00 82 1020.4
20260906122427 60 222 1.0 2.0 0.00 0.00 0.00 81 1020.4
20260906121925 60 206 1.0 2.0 0.00 0.00 0.00 80 1020.4
20260906121424 60 219 1.0 2.0 0.00 0.00 0.00 79 1020.4
20260906120924 61 300 1.0 1.0 0.00 0.00 0.00 78 1020.4
20260906120424 61 216 1.0 2.0 0.00 0.00 0.00 77 1020.4
20260906115925 61 190 2.0 3.0 0.00 0.00 0.00 76 1020.4
20260906115424 62 220 1.0 2.0 0.00 0.00 0.00 75 1020.4
20260906114924 62 180 2.0 2.0 0.00 0.00 0.00 74 1020.4
20260906114425 62 204 1.0 2.0 0.00 0.00 0.00 73 1020.4
20260906113924 62 191 1.0 2.0 0.00 0.00 0.00 72 1020.4
20260906113424 62 211 1.0 3.0 0.00 0.00 0.00 72 1020.4
20260906112924 62 289 1.0 1.0 0.00 0.00 0.00 71 1020.4
20260906112424 62 227 1.0 2.0 0.00 0.00 0.00 71 1020.4
20260906111923 62 179 1.0 3.0 0.00 0.00 0.00 70 1020.4
20260906111424 62 179 3.0 3.0 0.00 0.00 0.00 69 1020.3
20260906110924 62 189 2.0 2.0 0.00 0.00 0.00 69 1020.1
20260906110425 62 202 1.0 2.0 0.00 0.00 0.00 67 1020.1
20260906105924 62 321 1.0 2.0 0.00 0.00 0.00 68 1020.2
20260906105424 62 323 1.0 1.0 0.00 0.00 0.00 67 1020.0
20260906104924 62 206 2.0 3.0 0.00 0.00 0.00 69 1019.8
20260906104424 62 239 1.0 1.0 0.00 0.00 0.00 68 1020.0
20260906103924 62 211 2.0 4.0 0.00 0.00 0.00 69 1020.0
20260906103425 63 313 1.0 1.0 0.00 0.00 0.00 68 1020.0
20260906102925 63 13 1.0 1.0 0.00 0.00 0.00 65 1020.0
20260906102424 63 190 2.0 2.0 0.00 0.00 0.00 65 1019.8
20260906101924 63 218 1.0 2.0 0.00 0.00 0.00 64 1019.8
20260906101424 62 209 2.0 3.0 0.00 0.00 0.00 66 1019.7
20260906100924 62 195 1.0 3.0 0.00 0.00 0.00 67 1019.6
20260906100424 62 227 1.0 2.0 0.00 0.00 0.00 69 1019.6
20260906095925 62 140 1.0 1.0 0.00 0.00 0.00 71 1019.8
20260906095424 62 239 1.0 1.0 0.00 0.00 0.00 70 1019.8
20260906094925 63 324 1.0 2.0 0.00 0.00 0.00 68 1019.8
20260906094424 63 212 1.0 2.0 0.00 0.00 0.00 66 1019.8
20260906093924 62 206 2.0 3.0 0.00 0.00 0.00 67 1020.0
20260906093424 62 199 1.0 2.0 0.00 0.00 0.00 67 1020.0
20260906092924 62 211 1.0 2.0 0.00 0.00 0.00 69 1019.8
20260906092424 62 301 1.0 1.0 0.00 0.00 0.00 70 1019.8
20260906091924 62 332 1.0 1.0 0.00 0.00 0.00 69 1019.8
20260906091425 63 281 0.0 1.0 0.00 0.00 0.00 68 1019.7
20260906090924 63 222 1.0 2.0 0.00 0.00 0.00 68 1019.6
20260906090424 63 204 1.0 2.0 0.00 0.00 0.00 68 1019.6
20260906085924 64 340 1.0 1.0 0.00 0.00 0.00 67 1019.6
20260906085425 64 248 1.0 2.0 0.00 0.00 0.00 66 1019.5
20260906084925 64 207 1.0 2.0 0.00 0.00 0.00 66 1019.6
20260906084424 64 195 2.0 2.0 0.00 0.00 0.00 65 1019.5
20260906083924 64 203 1.0 1.0 0.00 0.00 0.00 65 1019.4
20260906083424 64 226 1.0 1.0 0.00 0.00 0.00 64 1019.4
20260906082924 65 219 1.0 2.0 0.00 0.00 0.00 65 1019.4
20260906082425 65 62 1.0 2.0 0.00 0.00 0.00 63 1019.5
20260906081924 66 139 1.0 1.0 0.00 0.00 0.00 62 1019.5
20260906081425 66 85 1.0 1.0 0.00 0.00 0.00 60 1019.5
20260906080926 66 73 1.0 1.0 0.00 0.00 0.00 59 1019.4
20260906080425 66 183 1.0 1.0 0.00 0.00 0.00 60 1019.4
20260906075924 66 29 2.0 2.0 0.00 0.00 0.00 59 1019.4
20260906075424 67 203 2.0 2.0 0.00 0.00 0.00 60 1019.4
20260906074924 67 55 0.0 1.0 0.00 0.00 0.00 58 1019.4
20260906074424 68 144 1.0 2.0 0.00 0.00 0.00 58 1019.4
20260906073924 68 63 1.0 1.0 0.00 0.00 0.00 56 1019.4
20260906073426 68 137 1.0 2.0 0.00 0.00 0.00 55 1019.3
20260906072924 68 174 1.0 1.0 0.00 0.00 0.00 56 1019.3
20260906072424 69 34 1.0 2.0 0.00 0.00 0.00 55 1019.3
20260906071925 69 291 1.0 1.0 0.00 0.00 0.00 55 1019.1
20260906071425 69 128 1.0 2.0 0.00 0.00 0.00 54 1019.1
20260906070924 69 167 2.0 2.0 0.00 0.00 0.00 53 1019.1
20260906070424 69 191 2.0 3.0 0.00 0.00 0.00 53 1019.1
20260906065925 69 214 2.0 3.0 0.00 0.00 0.00 54 1019.1
20260906065424 69 169 2.0 3.0 0.00 0.00 0.00 55 1019.1
20260906064924 69 255 1.0 1.0 0.00 0.00 0.00 54 1019.0
20260906064424 69 356 1.0 1.0 0.00 0.00 0.00 54 1019.0
20260906063924 70 319 1.0 1.0 0.00 0.00 0.00 55 1019.1
20260906063424 70 261 1.0 3.0 0.00 0.00 0.00 53 1019.3
20260906062924 71 201 1.0 2.0 0.00 0.00 0.00 53 1019.5
20260906062424 71 186 1.0 2.0 0.00 0.00 0.00 52 1019.5
20260906061924 71 169 2.0 2.0 0.00 0.00 0.00 51 1019.5
20260906061424 71 302 1.0 2.0 0.00 0.00 0.00 50 1019.6
20260906060924 72 207 2.0 5.0 0.00 0.00 0.00 49 1019.7
20260906060424 72 197 1.0 2.0 0.00 0.00 0.00 49 1019.7
20260906055924 72 202 2.0 4.0 0.00 0.00 0.00 48 1019.7
20260906055425 72 169 1.0 2.0 0.00 0.00 0.00 47 1019.7
20260906054927 73 61 1.0 2.0 0.00 0.00 0.00 46 1019.7
20260906054424 73 340 1.0 1.0 0.00 0.00 0.00 46 1019.8
20260906053943 73 238 1.0 2.0 0.00 0.00 0.00 45 1019.7
20260906053424 73 188 2.0 5.0 0.00 0.00 0.00 45 1019.8
20260906052924 74 318 2.0 3.0 0.00 0.00 0.00 44 1019.8
20260906052425 74 245 1.0 2.0 0.00 0.00 0.00 44 1019.7
20260906051924 74 195 3.0 5.0 0.00 0.00 0.00 43 1019.7
20260906051424 75 233 1.0 3.0 0.00 0.00 0.00 42 1019.7
20260906050924 75 216 2.0 3.0 0.00 0.00 0.00 41 1019.8
20260906050424 75 227 3.0 5.0 0.00 0.00 0.00 40 1019.8
20260906045926 75 203 6.0 10.0 0.00 0.00 0.00 41 1020.1
20260906045425 76 248 1.0 2.0 0.00 0.00 0.00 40 1020.0
20260906044924 76 330 1.0 2.0 0.00 0.00 0.00 38 1019.8
20260906044425 75 279 1.0 2.0 0.00 0.00 0.00 37 1020.0
20260906043925 75 278 1.0 2.0 0.00 0.00 0.00 37 1020.2
20260906043424 74 255 1.0 2.0 0.00 0.00 0.00 41 1020.2
20260906042924 73 261 1.0 1.0 0.00 0.00 0.00 43 1020.2
20260906042424 73 270 1.0 1.0 0.00 0.00 0.00 43 1020.1
20260906041924 72 226 1.0 1.0 0.00 0.00 0.00 43 1019.8
20260906041424 70 165 3.0 4.0 0.00 0.00 0.00 48 1020.0
20260906040925 69 133 2.0 3.0 0.00 0.00 0.00 56 1019.8
20260906040424 70 73 1.0 1.0 0.00 0.00 0.00 53 1019.4
20260906035924 70 232 1.0 1.0 0.00 0.00 0.00 52 1019.1
20260906035424 70 219 1.0 1.0 0.00 0.00 0.00 52 1019.0
20260906034925 70 230 1.0 1.0 0.00 0.00 0.00 51 1018.9
20260906034424 70 202 1.0 2.0 0.00 0.00 0.00 50 1018.9
20260906033924 70 223 1.0 1.0 0.00 0.00 0.00 49 1018.8
20260906033424 70 213 1.0 2.0 0.00 0.00 0.00 48 1018.7
20260906032924 71 195 1.0 2.0 0.00 0.00 0.00 48 1018.7
20260906032424 71 177 2.0 2.0 0.00 0.00 0.00 49 1018.7
20260906031924 71 234 1.0 1.0 0.00 0.00 0.00 48 1018.7
20260906031424 72 148 1.0 2.0 0.00 0.00 0.00 48 1018.7
20260906030925 72 360 1.0 1.0 0.00 0.00 0.00 45 1018.5
20260906030424 73 3 0.0 1.0 0.00 0.00 0.00 45 1018.4
20260906025924 73 273 0.0 1.0 0.00 0.00 0.00 44 1018.3
20260906025424 74 360 1.0 2.0 0.00 0.00 0.00 43 1018.1
20260906024924 74 216 1.0 1.0 0.00 0.00 0.00 42 1018.1
20260906024424 74 220 1.0 1.0 0.00 0.00 0.00 41 1018.1
20260906023924 74 280 0.0 1.0 0.00 0.00 0.00 42 1018.1
20260906023425 74 161 1.0 1.0 0.00 0.00 0.00 40 1018.1
20260906022924 75 180 0.0 1.0 0.00 0.00 0.00 42 1018.0
20260906022424 75 190 1.0 2.0 0.00 0.00 0.00 42 1018.0
20260906021924 76 189 2.0 2.0 0.00 0.00 0.00 39 1017.8
20260906021424 76 203 2.0 2.0 0.00 0.00 0.00 39 1017.7
20260906020924 77 203 1.0 2.0 0.00 0.00 0.00 40 1017.7
20260906020424 78 194 1.0 2.0 0.00 0.00 0.00 38 1017.6
20260906015924 79 179 1.0 1.0 0.00 0.00 0.00 36 1017.6
20260906015424 80 205 1.0 1.0 0.00 0.00 0.00 32 1017.5
20260906014925 81 295 1.0 1.0 0.00 0.00 0.00 31 1017.5
20260906014424 81 283 1.0 1.0 0.00 0.00 0.00 31 1017.5
20260906013924 81 327 1.0 1.0 0.00 0.00 0.00 31 1017.4
20260906013424 81 333 1.0 2.0 0.00 0.00 0.00 30 1017.3
20260906012924 81 353 2.0 3.0 0.00 0.00 0.00 30 1017.3
20260906012425 80 7 1.0 2.0 0.00 0.00 0.00 31 1017.3
20260906011924 80 315 1.0 1.0 0.00 0.00 0.00 33 1017.3
20260906011424 80 323 1.0 2.0 0.00 0.00 0.00 33 1017.1
20260906010925 80 283 1.0 1.0 0.00 0.00 0.00 36 1017.1
20260906010425 81 217 1.0 1.0 0.00 0.00 0.00 36 1017.1
20260906005924 82 208 1.0 1.0 0.00 0.00 0.00 36 1017.1
20260906005424 83 213 1.0 1.0 0.00 0.00 0.00 34 1017.1
20260906004924 84 204 1.0 2.0 0.00 0.00 0.00 33 1017.1
20260906004425 85 193 1.0 1.0 0.00 0.00 0.00 32 1017.1
20260906003925 86 219 1.0 1.0 0.00 0.00 0.00 29 1017.1
20260906003424 87 241 1.0 1.0 0.00 0.00 0.00 28 1017.1
20260906002924 88 291 1.0 1.0 0.00 0.00 0.00 27 1017.1
20260906002424 90 8 1.0 1.0 0.00 0.00 0.00 25 1017.1
20260906001924 92 244 1.0 1.0 0.00 0.00 0.00 24 1017.1
20260906001424 93 327 1.0 1.0 0.00 0.00 0.00 23 1017.0
20260906000924 93 347 1.0 1.0 0.00 0.00 0.00 22 1017.0
20260906000425 93 207 1.0 2.0 0.00 0.00 0.00 21 1017.0
20260905235925 93 21 1.0 2.0 0.00 0.00 0.00 21 1017.0
20260905235424 94 344 2.0 2.0 0.00 0.00 0.00 22 1016.9
20260905234924 94 4 1.0 2.0 0.00 0.00 0.00 21 1016.9
20260905234424 94 239 1.0 2.0 0.00 0.00 0.00 21 1016.9
20260905233924 94 284 1.0 2.0 0.00 0.00 0.00 21 1016.9
20260905233424 93 6 0.0 2.0 0.00 0.00 0.00 21 1016.9
20260905232924 93 189 2.0 2.0 0.00 0.00 0.00 21 1016.9
20260905232424 94 22 3.0 6.0 0.00 0.00 0.00 22 1016.9
20260905231924 95 260 1.0 3.0 0.00 0.00 0.00 20 1016.9
20260905231424 94 142 1.0 1.0 0.00 0.00 0.00 20 1016.9
20260905230924 94 320 2.0 4.0 0.00 0.00 0.00 21 1016.9
20260905230424 94 219 1.0 2.0 0.00 0.00 0.00 21 1016.9
20260905225925 94 179 2.0 3.0 0.00 0.00 0.00 21 1016.9
20260905225424 94 89 2.0 2.0 0.00 0.00 0.00 20 1016.9
20260905224925 94 195 1.0 2.0 0.00 0.00 0.00 20 1016.9
20260905224424 93 183 2.0 3.0 0.00 0.00 0.00 21 1016.9
20260905223924 93 254 2.0 3.0 0.00 0.00 0.00 21 1016.9
20260905223424 93 2 2.0 3.0 0.00 0.00 0.00 22 1016.9
20260905222924 94 349 2.0 4.0 0.00 0.00 0.00 22 1017.0
20260905222425 94 344 2.0 4.0 0.00 0.00 0.00 22 1017.0
20260905221924 94 258 1.0 3.0 0.00 0.00 0.00 22 1017.0
20260905221424 93 275 1.0 2.0 0.00 0.00 0.00 21 1017.0